Miscellaneous Local Product
Issued by NWS North Platte, NE

Home | Current Version | Previous Version | Graphics & Text | Print | Product List | Glossary On
Versions: 1 2 3 4 5 6 7 8 9 10 11 12 13 14 15 16 17 18 19 20 21 22 23 24 25 26 27 28 29 30 31 32 33 34 35 36 37 38 39 40 41 42 43 44 45 46 47 48 49 50
572
AXUS43 KLBF 290510
MISLBF


WESTERN AND NORTH CENTRAL NEBRASKA HOURLY WEATHER ROUNDUP
NATIONAL WEATHER SERVICE NORTH PLATTE NE
1200 AM CDT FRI APR 29 2016

NOTE: "FAIR" INDICATES FEW OR NO CLOUDS BELOW 12,000 FEET WITH NO
SIGNIFICANT WEATHER AND/OR OBSTRUCTIONS TO VISIBILITY.

NOTE: STATIONS NOT REPORTING VARIABLES SUCH AS SKY/WEATHER OR
PRESSURE ARE PROVIDED BY RAWS AND APRS NETWORKS AND ARE NOT UNDER
NATIONAL WEATHER SERVICE QUALITY CONTROL.

...OBSERVATIONS IN AND NEAR THE EASTERN PANHANDLE OF NEBRASKA...

CITY           SKY/WX    TMP DP  RH WIND       PRES   REMARKS
PINE RIDGE     CLOUDY    37  34  89 CALM      30.13S
CHADRON        CLOUDY    38  37  97 VRB6      30.12F WCI  33
ALLIANCE       CLOUDY    35  34  96 N5        30.09F WCI  31
SIDNEY         CLOUDY    36  33  89 NE10      30.08F WCI  28
CRESCENT LAKE    N/A     34  33  96 N3          N/A
BIG SPRINGS      N/A     43  38  84 NE5         N/A
$$

...OBSERVATIONS IN NORTHERN NEBRASKA AND FAR SOUTHERN SOUTH DAKOTA...

CITY           SKY/WX    TMP DP  RH WIND       PRES   REMARKS
WINNER         CLOUDY    43  38  82 CALM      30.13R
VALENTINE      CLOUDY    39  36  89 NW7       30.13R WCI  34
THEDFORD       CLOUDY    40  37  88 N5        30.14R
AINSWORTH      CLOUDY    39  38  97 NW6       30.12S FOG
O`NEILL        CLOUDY    40  39  93 CALM      30.13R
ORD            CLOUDY    42  38  85 N5        30.12R
BROKEN BOW     CLOUDY    42  39  89 N6        30.13R
VALENTINE NWR    N/A     38  37  96 N6G13       N/A  WCI  33
BUTTE            N/A     39  38  97 N5          N/A
HALSEY           N/A     39  37  92 CALM        N/A
CHAMBERS         N/A     40  39  95 CALM        N/A
EWING            N/A     41  39  93 N3          N/A
$$

...OBSERVATIONS IN SOUTHWEST NEBRASKA AND FAR NORTHEAST COLORADO...

CITY           SKY/WX    TMP DP  RH WIND       PRES   REMARKS
IMPERIAL       CLOUDY    43  38  82 NE6       30.10S
OGALLALA       CLOUDY    42  36  79 N8        30.10F
NORTH PLATTE   CLOUDY    42  38  85 NE9       30.11S
MCCOOK         CLOUDY    44  40  85 NE7       30.10F
LEXINGTON      CLOUDY    45  41  88 NE5       30.11S
PAXTON           N/A     44  39  83 CALM        N/A
STAPLETON        N/A     40  37  89 CALM        N/A
GOTHENBURG       N/A     44  38  80 CALM        N/A
CALLAWAY         N/A     41  38  91 CALM        N/A
$$

...OBSERVATIONS IN CENTRAL LINCOLN COUNTY AREA...

CITY           SKY/WX    TMP DP  RH WIND       PRES   REMARKS
N.P. AIRPORT   CLOUDY    42  38  85 NE9       30.11S
N.P. DOWNTOWN    N/A     42  38  87 NE5         N/A
N.P. SOUTHEAST   N/A     42  38  85 CALM        N/A
N.P. HILLCREST   N/A     42  39  89 NE9         N/A
$$

...SOME OBSERVATIONS FROM AROUND THE REGION...

CITY           SKY/WX    TMP DP  RH WIND       PRES   REMARKS
DENVER         FLURRIES  37  32  82 E10       30.04S WCI  30
LARAMIE        CLOUDY    29  27  92 SE13      29.97F WCI  19
CHEYENNE       CLOUDY    33  31  92 S9        30.03S WCI  25
SCOTTSBLUFF    CLOUDY    35  32  88 E5        30.08F WCI  31
RAPID CITY     CLOUDY    37  34  89 N3        30.13F
BISMARCK       CLOUDY    46  32  58 NE8       30.16S
PIERRE         CLOUDY    43  37  79 N5        30.12F
SIOUX FALLS    DRIZZLE   38  36  92 N6        30.12R WCI  33
OMAHA          CLOUDY    46  41  82 N5        30.11S
GRAND ISLAND   CLOUDY    44  40  85 N6        30.13S
KANSAS CITY    CLOUDY    51  45  79 N7        30.08R
WICHITA        LGT RAIN  59  49  69 N16       30.01F
OKLAHOMA CITY  MOCLDY    63  51  65 E14       29.88S
DALLAS         CLOUDY    77  58  51 E13G24    29.77F THUNDER
AMARILLO       CLOUDY    57  52  83 E23G30    29.83S
DODGE CITY     CLOUDY    51  42  71 E22       29.98F
HAYS           PTCLDY    48  37  66 NE14      30.06F
GOODLAND       CLOUDY    42  38  85 NE6       30.07R
$$




USA.gov is the U.S. government's official web portal to all federal, state and local government web resources and services.